Погода Островное

Погода Островное : погода сейчас, прогноз погоды и архив. Всё, что Вы хотите узнать о погоде Островное!

Поиск расширенной информации на нашем сайте:

Другие новости

Новости СМИ2

Главная страница сайта

Новости сайта

02.10.2013

Напоминаем, что на нашем новом сайте вы можете получить высокодетализированные прогнозы погоды по пунктам России, СНГ и мира (включающие важные для авиации метеовеличины, такие как направление и скорость ветра, видимость, явления погоды, количество и форма облачности, нижняя и верхняя граница облачности), а также ознакомиться с разнообразными материалами по авиационной метеорологии и подборкой полезных ссылок на эту тему.

Сайт Метеоцентр.Азия посвящён разработке технологий оптимизации авиаметеорологического обслуживания, включая проектирование и перспективное создание нескольких автоматизированных авиаметеорологических систем:
- система выпуска высокодетальных прогностических карт явлений погоды для нижнего воздушного пространства по России и ближнему зарубежью;
- система верификации прогнозов TAF (выпускаемых синоптиками официальных АМСГ РФ и ближнего зарубежья) и AUTOTAF (выпускаемых сайтом Метеоцентр.Азия) - выявление ошибок, онлайн-сопоставление с фактической погодой METAR, автоматическое внесение коррективов в прогнозы при резком отклонении фактической погоды от прогноза, подсчёт оправдываемости прогнозов по элементам и в целом;
- система обработки, анализа и отображения авиаметеорологической информации для применения провайдерами метеорологической информации.

Рекомендуем: стеклянные торговые витрины

Погода Островное - сегодня

Время (UTC), дата Ветер
(°,м/с) 
Видим.   Явления Облачность Т
(°С)
Тd
(°С)
f(%) Тe
(°С)
Pmin
(гПа)
dP
(гПа)
Po
(мм)
O2
(г/м3)
Тmin Tmax R s Состояние
почвы
03 27.04.17 100 (В) 2{05}  20000 м    10/4 600 м средняя, верхняя 
[Sc|Ac trans|Cs]
+0.8 -11.3 40 1009.1  -1.1  748  302           
06 27.04.17 080 (В) 2{04}  20000 м    10/3 600 м средняя, верхняя 
[Sc|Ac trans|Cs]
+0.3 -11.6 40 1008.3  -0.9  747  302           
09 27.04.17 140 (ЮВ) 1{04}  20000 м    10/4 600 м средняя, верхняя 
[Sc|Ac trans|Cs]
-0.6 -9.6 51 1007.7  -0.6  747  303    +0.8       
12 27.04.17 130 (ЮВ) 3{07}  20000 м    10/6 600 м средняя 
[Sc|Ac As]
-2.6 -7.4 70 -5  1007.7  -0.1  747  305           
15 27.04.17 090 (В) 3{06}  20000 м  слаб. снег  10/9 600 м средняя 
[Sc|As op]
-4.4 -5.7 91 -7  1007.1  -0.7  746  306           
18 27.04.17 110 (В) 4{07}  20000 м  снег  10/4 600 м средняя, верхняя 
[Sc|Ac trans|Cs]
-5.1 -7.6 83 -8  1006.6  -0.5  746  307           
21 27.04.17 130 (ЮВ) 4{08}  20000 м    10/5 600 м средняя, верхняя 
[Sc|Ac trans|Ci fib]
-2.5 -8.5 63 -5  1006.3  -0.2  746  304  -3.3    0.5  мокрый или
старый снег
50-90% 
00 28.04.17 130 (ЮВ) 3{08}  20000 м    10/6 600 м средняя, верхняя 
[Sc|Ac trans|Ci fib]
-1.5 -8.3 60 -3  1005.7  -0.6  745  303           
03 28.04.17 130 (ЮВ) 4{08}  20000 м  {снег}  10/1 600 м средняя, верхняя 
[Sc|Ac trans|Ci fib]
+0.4 -5.8 63 -2  1004.9  -0.7  745  300           
06 28.04.17 140 (ЮВ) 2{08}  20000 м    10/3 600 м средняя, верхняя 
[Sc|Ac trans|Ci fib]
+1.4 -8.2 49 +1  1004.2  -0.6  744  299           
09 28.04.17 160 (Ю) 3{07}  20000 м    6/6 600 м 
[Sc]
-0.3 -8.6 53 -2  1004.4  0.1  744  301    +1.7  0.0     
12 28.04.17 100 (В) 21{09}  20000 м    3/3 600 м 
[Sc]
-9.7   1005.2  0.7  745             
15 28.04.17 120 (ЮВ) 5{11}  20000 м    ясно 600 м 
-4.9 -11.2 61 -9  1005.6  -0.3  745  307           
18 28.04.17 110 (В) 6{11}  20000 м    ясно 
-6.1 -12 63 -11  1006  -0.3  745  308           
21 28.04.17 090 (В) 7-10  20000 м    ясно 
-4.1 -11.4 57 -9  1005.8  -0.1  745  306  -6.1      <0.5  мокрый или
старый снег
10-40% 
00 29.04.17 110 (В) 5{09}  20000 м    5/0 верхняя 
[Ci fib]
-0.9 -11.1 46 -4  1006.1  0.5  746  302           
03 29.04.17 100 (В) 3{09}  20000 м    3/0 верхняя 
[Ci fib]
+1.8 -10.1 41 1005.4  -0.6  745  299           
06 29.04.17 140 (ЮВ) 2{06}  20000 м    ясно 
+1.8 -11.1 38 +1  1005.5  0.1  745  299           
09 29.04.17 140 (ЮВ) 3{05}  20000 м    ясно 
-0.5 -10.9 45 -2  1006.8  1.2  746  302    +2.1       
12 29.04.17 020 (С) 1{05}  20000 м    ясно 
-5.5 -11.1 65 -5  1008  0.9  747  308           
15 29.04.17 300 (СЗ) 1{03}  20000 м    ясно 
-9.3 -12.8 76 -9  1009.6  2.4  748  313           
18 29.04.17 210 (ЮЗ) 1{03}  20000 м    ясно 
-8.8 -12.6 74 -9  1010.6  0.2  749  313           
21 29.04.17 090 (В) 4{06}  20000 м    4/0 верхняя 
[Ci fib]
-4.9 -12.2 57 -8  1011  0.4  749  309  -11.6      мокрый или
старый снег
50-90% 
00 30.04.17 080 (В) 1{05}  20000 м    ясно 
+0.1 -10.9 43 +1  1011.1  0.3  749  303           
03 30.04.17 050 (СВ) 1{03}  20000 м    ясно 
+2.4 -10.6 38 +3  1010.9  -0.1  749  300           
Время (UTC), дата Ветер
(°,м/с) 
Видим.   Явления Облачность Т
(°С)
Тd
(°С)
f(%) Тe
(°С)
Pmin
(гПа)
dP
(гПа)
Po
(мм)
O2
(г/м3)
Тmin Tmax R s Состояние
почвы

Для получения пояснительной информации подведите курсор к названию столбца.

ПОГОДА Островное - архив

Всё, что Вы хотите узнать о погоде Островное - удобно и подробно!

Выберите нужную дату (начиная с 1 января 2015* года) и нажмите кнопку "Найти".
Будут отображены архивные сводки погоды по пункту Островное, начиная с указанной даты.


Отображать данные в формате CSV (для использования в таблицах Excel)


Внимание! Наш архив погоды предназначен исключительно для личного некоммерческого использования в познавательных целях. Если Вам необходимы официальные справки о состоянии погоды (для производственных, юридических, коммерческих и т.п. целей), обращайтесь в органы Росгидромета.

*Примечание: данная дата относится к архиву по метеостанциям СССР (Россия, СНГ, Балтия).
Архив по метеостанциям Зарубежной Европы и Азии (кроме Китая) хранится 10 дней, по другим регионам земного шара (Китай, Африка, Америка, Австралия, Океания) - 1 день.

Островное - район местоположения метеостанции


Название, широта, долгота, высота метеостанции:
Островное 68.12°ш. 164.16°д. 94 м над ур. моря [Российская Федерация]

Дополнительная информация

В oтличие oт бoльшинства пoгoдных сайтoв мы публикуем пoдрoбную метеoинфoрмацию в детальнoм прoфессиoнальнoм фoрмате.

Характеристики температуры и влажнoсти вoздуха измеряются на высoте 2 м в тени вдали oт зданий и деревьев.
Скoрoсть ветра измеряется на высoте 10 м (на урoвне рoста челoвека скoрoсть ветра ниже в 1.5-2 раза). Если метеoстанция нахoдится в гoрoде или в лесу, тo скoрoсть ветра занижена на 2-4 м/с пo сравнению с oткрытым местoм. Скoрoсть ветра над акватoриями крупных рек и oзёр, а также на вершинах хoлмoв на 2-5 м/с выше, чем в oбычных услoвиях.
Атмoсфернoе давление в разных тoчках местнoсти мoжет значительнo oтличаться oт давления на метеoстанции, в зависимoсти oт услoвий рельефа (при пoдъёме на 10 м давление пoнижается примернo на 1 мм рт.ст.).